FW6330 Weather Reports


Display with metric or nautical units.
time (UTC)temp
F
wind
direction
speed
MPH
gust
MPH
rain 1hr
in
rain 24hr
in
rain mn
in
humidity
%
barometer
mb
20260503221536 47 32 0.0 4.0 0.00 0.00 0.00 68 1009.4
20260503220034 48 205 0.0 5.0 0.00 0.00 0.00 68 1009.3
20260503214532 48 213 0.0 2.0 0.00 0.00 0.00 70 1009.3
20260503213031 47 192 0.0 1.0 0.00 0.00 0.00 71 1009.3
20260503211537 47 50 0.0 1.0 0.00 0.00 0.00 68 1009.2
20260503210031 48 103 0.0 0.0 0.00 0.00 0.00 67 1009.4
20260503204531 49 163 0.0 1.0 0.00 0.00 0.00 63 1009.1
20260503203028 49 134 0.0 3.0 0.00 0.00 0.00 62 1009.4
20260503201528 50 244 0.0 1.0 0.00 0.00 0.00 58 1009.1
20260503200027 50 174 0.0 1.0 0.00 0.00 0.00 59 1009.0
20260503194526 50 248 0.0 1.0 0.00 0.00 0.00 57 1009.1
20260503193036 50 190 0.0 1.0 0.00 0.00 0.00 55 1009.0
20260503191522 52 103 0.0 3.0 0.00 0.00 0.00 53 1009.0
20260503190025 54 305 0.0 4.0 0.00 0.00 0.00 51 1008.8
20260503184517 56 194 0.0 5.0 0.00 0.00 0.00 46 1008.9
20260503183008 57 15 0.0 2.0 0.00 0.00 0.00 45 1009.1
20260503181505 56 188 0.0 3.0 0.00 0.00 0.00 45 1009.3
20260503180101 56 153 0.0 3.0 0.00 0.00 0.00 45 1009.3
20260503174607 55 214 0.0 4.0 0.00 0.00 0.00 48 1009.2
20260503173050 57 42 0.0 3.0 0.00 0.00 0.00 48 1009.2
20260503171546 57 212 0.0 3.0 0.00 0.00 0.00 48 1009.2
20260503081518 44 51 0.0 2.0 0.00 0.00 0.00 71 1012.3
20260503071553 45 172 0.0 3.0 0.00 0.00 0.00 73 1013.0
20260503054545 45 70 0.0 1.0 0.00 0.00 0.00 78 1013.4
20260503053045 45 122 0.0 0.0 0.00 0.00 0.00 78 1013.3
20260503051546 45 38 0.0 1.0 0.00 0.00 0.00 79 1013.3
20260503050043 45 236 0.0 1.0 0.00 0.00 0.00 81 1013.2
20260503044548 46 34 0.0 0.0 0.00 0.00 0.00 80 1013.1
20260503043044 46 36 0.0 0.0 0.00 0.00 0.00 79 1012.9
20260503041542 47 57 0.0 0.0 0.00 0.00 0.00 78 1012.8
20260503040042 47 23 0.0 2.0 0.00 0.00 0.00 77 1012.6
20260503034550 48 130 0.0 0.0 0.00 0.00 0.00 75 1012.5
20260503033033 49 74 0.0 1.0 0.00 0.00 0.00 73 1012.3
20260503031530 49 100 0.0 0.0 0.00 0.00 0.00 72 1012.3
20260503030023 50 162 0.0 0.0 0.00 0.00 0.00 71 1012.2
20260503024519 51 190 0.0 0.0 0.00 0.00 0.00 67 1012.1
20260503023016 52 122 0.0 0.0 0.00 0.00 0.00 64 1012.2
20260503021514 52 39 0.0 2.0 0.00 0.00 0.00 61 1012.2
20260503020005 53 345 0.0 3.0 0.00 0.00 0.00 59 1012.1
20260503014625 53 179 0.0 1.0 0.00 0.00 0.00 59 1012.2
20260503013055 54 141 0.0 5.0 0.00 0.00 0.00 57 1012.3
20260503011552 55 338 0.0 4.0 0.00 0.00 0.00 55 1012.3
20260503010046 55 186 1.0 7.0 0.00 0.00 0.00 52 1012.5
20260503004542 56 23 0.0 5.0 0.00 0.00 0.00 53 1012.4
20260503003049 56 167 0.0 7.0 0.00 0.00 0.00 52 1012.2
20260503001549 56 86 0.0 5.0 0.00 0.00 0.00 53 1012.3
20260503000032 56 167 0.0 3.0 0.00 0.00 0.00 53 1012.4
20260502234527 57 227 0.0 5.0 0.00 0.00 0.00 54 1012.4
20260502233025 57 47 2.0 7.0 0.00 0.00 0.00 51 1012.5
20260502231516 58 268 1.0 5.0 0.00 0.00 0.00 51 1012.4
20260502230011 57 144 2.0 8.0 0.00 0.00 0.00 51 1012.7
20260502224507 57 195 0.0 4.0 0.00 0.00 0.00 51 1012.9
20260502223008 56 206 0.0 5.0 0.00 0.00 0.00 50 1013.2